Pasco, WA
on Tuesday, January 8, 2013

Tuesday
Previous Day Next Day
Daily Summary
 ActualAverageRecord
Temperature
Mean Temperature °F 34°F  
Max Temperature 51°F 40°F 60°F (2002)
Min Temperature 39°F 27°F 10°F (2004)
Degree Days
Heating Degree Days 20 31  
Month to date heating degree days 255 255  
Since 1 July heating degree days 2162 2471  
Cooling Degree Days 0 0  
Month to date cooling degree days 0 0  
Year to date cooling degree days 0 0  
Moisture
Dew Point 39°F   
Average Humidity 78    
Maximum Humidity 89    
Minimum Humidity 66    
Precipitation
Precipitation 0.03 in in 0.36 in (1995)
Month to date precipitation 0.27  
Year to date precipitation 0.27  
Snow
Snow 0.00 in in in ()
Snow Depth 0.00 in   
Wind
Wind Speed 10 mph   
Max Wind Speed 23 mph   
Max Gust Speed 29 mph   
Visibility 10 miles   
Events Rain   

Key: T is trace of precipitation, MM is missing value
Source: NWS Daily Summary
Time(PST)TemperatureDew PointHumidity Pressure Visibility Wind DirectionWind SpeedGust SpeedPrecipitationEvents Conditions
12:53 AM 46.0°F 37.0°F 71% 30.11 in 10.0 miles WSW 17.3 mph - N/A   Clear
1:53 AM 45.0°F 36.0°F 71% 30.12 in 10.0 miles WSW 17.3 mph - N/A   Clear
2:53 AM 44.1°F 36.0°F 73% 30.15 in 10.0 miles WNW 4.6 mph - N/A   Partly Cloudy
3:53 AM 39.0°F 35.1°F 86% 30.14 in 10.0 miles NE 4.6 mph - N/A   Mostly Cloudy
4:53 AM 39.9°F 36.0°F 86% 30.14 in 10.0 miles South 6.9 mph - N/A   Overcast
5:53 AM 42.1°F 37.0°F 82% 30.15 in 10.0 miles SSW 5.8 mph - N/A   Overcast
6:53 AM 43.0°F 36.0°F 76% 30.14 in 10.0 miles South 5.8 mph - N/A   Overcast
7:53 AM 44.1°F 37.0°F 76% 30.14 in 10.0 miles SSW 8.1 mph - N/A   Overcast
8:53 AM 44.1°F 37.0°F 76% 30.15 in 10.0 miles Variable 4.6 mph - 0.00 in   Overcast
9:53 AM 43.0°F 39.9°F 89% 30.13 in 8.0 miles SSE 5.8 mph - 0.02 in Rain Light Rain
10:53 AM 43.0°F 41.0°F 93% 30.11 in 10.0 miles East 5.8 mph - 0.01 in   Overcast
11:53 AM 45.0°F 41.0°F 86% 30.07 in 10.0 miles East 6.9 mph - N/A   Overcast
12:53 PM 46.0°F 41.0°F 83% 30.04 in 10.0 miles ESE 6.9 mph - N/A   Overcast
1:53 PM 46.0°F 41.0°F 83% 30.02 in 10.0 miles SE 10.4 mph - N/A   Overcast
2:53 PM 48.0°F 41.0°F 77% 30.01 in 10.0 miles SSE 9.2 mph - N/A   Overcast
3:53 PM 50.0°F 41.0°F 71% 30.00 in 10.0 miles SSW 11.5 mph - N/A   Mostly Cloudy
4:53 PM 48.9°F 41.0°F 74% 29.97 in 10.0 miles SSW 9.2 mph - N/A   Mostly Cloudy
5:53 PM 48.0°F 39.9°F 74% 29.95 in 10.0 miles Calm Calm - N/A   Partly Cloudy
6:53 PM 48.0°F 39.9°F 74% 29.93 in 10.0 miles South 6.9 mph - N/A   Partly Cloudy
7:53 PM 50.0°F 39.9°F 68% 29.93 in 10.0 miles SSW 17.3 mph - N/A   Scattered Clouds
9:53 PM 48.0°F 39.0°F 71% 29.92 in 10.0 miles South 9.2 mph - N/A   Clear
10:53 PM 46.9°F 37.9°F 71% 29.92 in 10.0 miles SW 3.5 mph - N/A   Clear
11:53 PM 46.0°F 37.9°F 73% 29.91 in 10.0 miles Calm Calm - N/A   Clear
Moon Phase
Jan. 08 Jan. 11 Jan. 18 Jan. 26 Feb. 03
Sunrise:07:38 AM (PST) Moon Rise:04:16 AM (PST)1/8
Sunset:04:28 PM (PST) Moon Set:01:35 PM (PST)1/8

Copyright © 2014 The Weather Underground, Inc.